Regional Weather Roundup
Issued by NWS

Home | Current Version | Previous Version | Graphics & Text | Print | Product List | Glossary On
Versions: 1 2 3 4 5 6 7 8 9 10 11 12 13 14 15 16 17 18 19 20 21 22 23 24 25 26 27 28 29 30 31 32 33 34 35 36 37 38 39 40 41 42 43 44 45 46 47 48 49 50
242
ASUS43 KDMX 140903
RWRIA

WEATHER ROUNDUP FOR IOWA
NATIONAL WEATHER SERVICE DES MOINES IA
300 AM CST SUN FEB 14 2016

NOTE: "FAIR" INDICATES FEW OR NO CLOUDS BELOW 12,000 FEET WITH NO
SIGNIFICANT WEATHER AND/OR OBSTRUCTIONS TO VISIBILITY.

* - THESE STATIONS ARE NOT NWS STATIONS...THUS NOT UNDER NWS
QUALITY CONTROL.  THEY ALSO DO NOT REPORT WEATHER SUCH
AS PRECIPITATION OR FOG.

IAZ001>003-012>014-020>022-031>034-043>046-141000-
   NORTHWEST IOWA

CITY           SKY/WX    TMP DP  RH WIND       PRES   REMARKS
CARROLL *      CLOUDY    14  10  85 SE17      30.06F WCI  -3
CHEROKEE *     CLOUDY    14  10  85 SE10G21   30.04F WCI   1
DENISON *      CLOUDY    16   9  73 SE15G23   30.01F WCI   1
LE MARS *      LGT SNOW  16  12  86 S14G23    30.01F WCI   1
ORANGE CITY *  CLOUDY    12  10  92 SE13G20   29.97F FOG     WCI  -3
SHELDON *      CLOUDY    12  10  92 SE23G30   29.98F FOG     WCI  -7
SIOUX CITY     FLURRIES  19   8  62 SE13G20   30.00F WCI   6
SPENCER        MIX PCPN  13   8  81 SE25G31   30.03F WCI  -7
STORM LAKE *   CLOUDY    12  10  92 SE23G29   30.02F FOG     WCI  -7
$$

IAZ055>058-069>071-079>083-090>094-141000-
   SOUTHWEST IOWA

CITY           SKY/WX    TMP DP  RH WIND       PRES   REMARKS
ATLANTIC *     CLOUDY    18   7  62 SE13      30.07F WCI   4
AUDUBON *      CLOUDY    16   9  73 SE13G18   30.05F WCI   2
CLARINDA *     CLOUDY    21   5  49 SE13G21   30.11F WCI   9
COUNCIL BLFS * CLOUDY    19   7  58 SE21      30.04F WCI   3
CRESTON *      CLOUDY    18   7  62 SE18      30.10F WCI   2
HARLAN  *      CLOUDY    18   7  62 SE15G22   30.07F WCI   3
LAMONI         CLOUDY    19   6  57 SE9       30.13F WCI   8
RED OAK *      CLOUDY    21   5  49 SE15G22   30.09F WCI   8
$$

IAZ047>049-059>061-072>074-084-141000-
   CENTRAL IOWA

CITY           SKY/WX    TMP DP  RH WIND       PRES   REMARKS
AMES           CLOUDY    14  10  84 SE16      30.15F WCI  -2
ANKENY *       CLOUDY    16  10  79 SE15G22   30.16F WCI   1
BOONE *        CLOUDY    14  10  85 SE25      30.10F FOG     WCI  -5
CHARITON *     CLOUDY    18   9  68 SE16      30.15F WCI   3
DES MOINES     CLOUDY    16   9  74 SE12G21   30.15F WCI   3
GRINNELL*      CLOUDY    16  12  86 E17       30.20F WCI   0
KNOXVILLE *    CLOUDY    16   9  73 SE17      30.16F WCI   0
MARSHALLTOWN   CLOUDY    15  10  80 SE20      30.18F WCI  -2
NEWTON *       FLURRIES  16  12  86 SE15G22   30.19F WCI   1
PELLA *        CLOUDY    16  12  83 SE16      30.21F WCI   1
$$

IAZ004>006-015-016-023>025-035-036-141000-
   NORTH CENTRAL IOWA

CITY           SKY/WX    TMP DP  RH WIND       PRES   REMARKS
ALGONA *       LGT SNOW  14  12  92 SE17G25   30.08F WCI  -3
CLARION *      CLOUDY    14  10  85 SE20G30   30.12F FOG     WCI  -3
ESTHERVILLE    CLOUDY    12   9  87 SE23      30.05F FOG     WCI  -7
FORT DODGE *   CLOUDY    14   7  73 SE17G24   30.08F WCI  -3
MASON CITY     FLURRIES  11   8  88 SE18G25   30.16F WCI  -7
FOREST CITY *  FLURRIES  12   9  85 SE15      30.13F WCI  -4
WEBSTER CITY * LGT SNOW  14  10  85 SE24G32   30.10F WCI  -5
IOWA FALLS *   CLOUDY    16  12  86 SE16      30.16F FOG     WCI   0
$$

IAZ007>011-017>019-026>030-037>042-050>054-066-141000-
   NORTHEAST IOWA

CITY           SKY/WX    TMP DP  RH WIND       PRES   REMARKS
CEDAR RAPIDS   CLOUDY    16  10  77 SE14      30.26F WCI   2
CHARLES CITY * LGT SNOW  12  10  92 SE15      30.20F WCI  -4
CLINTON *      CLOUDY    16   4  59 SE12      30.35F WCI   3
DUBUQUE        CLOUDY    13   2  61 SE9       30.30F WCI   1
MONTICELLO *   CLOUDY    16   5  62 E12G18    30.28F WCI   3
OELWEIN *      FLURRIES  14   9  79 SE16      30.23F WCI  -2
WATERLOO       CLOUDY    14   7  73 SE15      30.22F WCI  -1
$$

IAZ064-065-067-068-078-141000-
   EAST CENTRAL IOWA

CITY           SKY/WX    TMP DP  RH WIND       PRES   REMARKS
DAVENPORT      CLOUDY    18   1  47 SE15      30.32F WCI   4
IOWA CITY      CLOUDY    16  12  84 SE15      30.31F WCI   1
MT. PLEASANT * CLOUDY    19  15  86 SE13      30.30S WCI   5
MUSCATINE *    LGT SNOW  18  14  86 SE10      30.33F WCI   6
QUAD CITIES    CLOUDY    19   1  45 SE12      30.33F WCI   7
$$

IAZ062-063-075>077-085>089-095>099-141000-
   SOUTHEAST IOWA

CITY           SKY/WX    TMP DP  RH WIND       PRES   REMARKS
BURLINGTON     CLOUDY    16  12  84 SE12      30.29F WCI   3
FAIRFIELD *    CLOUDY    16  10  79 SE17      30.26S WCI   0
FORT MADISON * CLOUDY    16  12  86 SE13      30.29F FOG     WCI   2
KEOKUK *       CLOUDY    19  14  79 SE15      30.28F WCI   5
OSKALOOSA *    CLOUDY    16  12  86 SE15G21   30.23F WCI   1
OTTUMWA        CLOUDY    16  12  84 SE16      30.22F WCI   1
WASHINGTON *   CLOUDY    16  12  86 SE16      30.29F FOG     WCI   0
$$

ABBREVIATIONS USED IN REMARKS
   TC - TEMPERATURES IN CELSIUS
  WCI - WIND CHILL INDEX
   HX - HEAT INDEX
  VSB - VISIBILITY
$$





USA.gov is the U.S. government's official web portal to all federal, state and local government web resources and services.